Other Surface Observations
Issued by NWS

Home | Current Version | Previous Version | Text Only | Print | Product List | Glossary On
Versions: 1 2 3 4 5 6 7 8 9 10 11 12 13 14 15 16 17 18 19 20 21 22 23 24 25 26 27 28 29 30 31 32 33 34 35 36 37 38 39 40 41 42 43 44 45 46 47 48 49 50
594
SXUS52 KTAE 241618
OSOTAE
OSOTAE
North Florida/South Alabama/Southwest Georgia Weather Roundup
National Weather Service Tallahassee Florida
1200 PM EDT FRI MAR 24 2017

Note: "fair" indicates few or no clouds below 12,000 feet with no
significant weather and/or obstructions to visibility.

!FLZ017-115-028-034-025-241700
...North Florida...

CITY           SKY/WX    TMP DP  RH WIND       PRES   REMARKS
TALLAHASSEE    MOSUNNY   73  53  49 SE14      30.37F
APALACHICOLA   SUNNY     71  61  70 E15G22    30.36R
PERRY          MOSUNNY   74  53  47 SE13G22   30.38F
CROSS CITY     MOSUNNY   75  52  43 E14G21    30.37F
JACKSONVILLE   MOSUNNY   74  51  44 SE20      30.41R
$$

!FLZ112-006-005-002-011-241700
...Florida Panhandle...

CITY           SKY/WX    TMP DP  RH WIND       PRES   REMARKS
MARIANNA       PTSUNNY   71  55  56 SE15G25   30.36F
BONIFAY        NOT AVBL
PANAMA CITY NW FAIR      73  56  54 SE15      30.35S
TYNDALL AFB    SUNNY     74  58  56 E17G24    30.34F
TYND DRONE APT FAIR      74  58  58 E22G36    30.34F
DE FUNIAK SPR  CLOUDY    69  54  58 SE13      30.36F
EGLIN AFB      PTSUNNY   69  58  66 SE14G20   30.34S
DESTIN         CLOUDY    71  63  75 SE16G23   30.34F
HURLBURT       CLOUDY    68  59  73 E13G23    30.33S
CRESTVIEW      CLOUDY    69  56  62 SE8       30.36S
PENSACOLA      CLOUDY    68  60  75 SE15G23   30.32S
$$

!ALZ063-066-241700
...South Alabama...

CITY           SKY/WX    TMP DP  RH WIND       PRES   REMARKS
DOTHAN         CLOUDY    69  55  60 SE15      30.41S
OZARK CAIRNS   CLOUDY    67  54  64 SE12      30.37S
FT RUCKER HELI CLOUDY    67  54  63 SE9G18    30.38R
RUCKER HELI 3  CLOUDY    67  54  62 S12G20    30.37R
RUCKER HELI 2  CLOUDY    67  54  63 S9        30.37S
FLORALA APT    MOSUNNY   69  54  58 S12G23    30.37S
ANDALUSIA      MOSUNNY   72  54  53 SE14G22   30.35S
TROY           CLOUDY    66  54  65 SE15G21   30.38S
EUFALA         CLOUDY    70  53  54 SE12      30.39S
MOBILE         CLOUDY    73  61  65 SE17G29   30.29R
$$

!GAZ120>161-241700
...Southwest and South Central Georgia...

CITY           SKY/WX    TMP DP  RH WIND       PRES   REMARKS
THOMASVILLE    FAIR      72  57  60 SE14G21   30.41F
BAINBRIDGE     SUNNY     72  54  53 SE14G21   30.39F
MOODY AFB      MOSUNNY   73  52  47 SE13G22   30.40F
VALDOSTA       MOSUNNY   71  53  52 SE13G21   30.40F
MOULTRIE       SUNNY     72  54  53 E7        30.41F
BLAKELY        CLOUDY    68  54  60 CALM      30.40S
ALBANY         SUNNY     71  53  52 SE14      30.42F
TIFTON         FAIR      69  53  56 SE12      30.42S
FITZGERALD     FAIR      71  54  56 SE9G16    30.46S
CORDELE        FAIR      71  53  51 SE16      30.44S
AMERICUS       CLOUDY    68  48  49 SE10      30.44S
HOMERVILLE     PTSUNNY   72  54  53 E10       30.43S
$$

!GMZ750-755-770-775-241700
...Coastal and Buoy Obs...

STATION/POSITION TIME  TEMP    WIND        PRES    VSBY  WAVE
                       AIR SEA DIR/SP/G                  HT/PER
                 (UTC) (F)     (DEG/KT/KT) (MB)    (MI)  (FT/S)
KEATON BEACH     1600   71      70/ 16/ 19 1027.9F
CEDAR KEY        1600   70     110/ 13/ 14 1028.4F
C TOWER          1600   66     110/ 20/ 22 1028.4S
APALACHICOLA BUO 1550   68 68  110/ 17/ 21 1026.7S         5/ 6
PANAMA CITY BUOY 1550   71 71              1026.0F         7/ 7
MOBILE BUOY      1600   72 73  120/ 19/ 27 1024.5
ORANGE BCH AL BU 1550   70 69  130/ 19/ 23 1025.5R         7/ 8
$$




USA.gov is the U.S. government's official web portal to all federal, state and local government web resources and services.